When you browse on this site, cookies collect data to enhance your experience and personalize the content and advertising you see.
Visit our Privacy Policy to learn more. By continuing to use the site, you agree to this use of cookies and data.
  • In Hungary
  • List of Countries
  • For 7 days
  • Water Temperature
  • Satellite Maps
  • Weather Map
  • News
  • Weather Widgets
  • user-avatar
    Login

    Hourly Weather Allentown

    Today, 20 February, Wednesday

    Time Temperature Precipitation Wind Pressure Humidity
    00:00 -2°C° 0 mm 1 mps 768 mmHg 50%
    01:00 -2°C° 0 mm 0 mps 767 mmHg 50%
    02:00 -2°C° 0 mm 0 mps 767 mmHg 50%
    03:00 -2°C° 0 mm 0 mps 767 mmHg 50%
    04:00 -2°C° 0 mm 0 mps 767 mmHg 49%
    05:00 -1°C° 0 mm 1 mps 767 mmHg 49%
    06:00 -1°C° 0 mm 1 mps 767 mmHg 49%
    07:00 -2°C° 0 mm 1 mps 767 mmHg 52%
    08:00 -3°C° 0 mm 2 mps 767 mmHg 50%
    09:00 -3°C° 0 mm 2 mps 767 mmHg 49%
    10:00 -3°C° 0 mm 2 mps 766 mmHg 48%
    11:00 -4°C° 0.2 mm 3 mps 766 mmHg 56%
    12:00 -4°C° 0.2 mm 3 mps 765 mmHg 64%
    13:00 -4°C° 0.2 mm 4 mps 764 mmHg 72%
    14:00 -4°C° 0.5 mm 3 mps 763 mmHg 78%
    15:00 -4°C° 0.5 mm 3 mps 763 mmHg 83%
    16:00 -3°C° 0.5 mm 2 mps 762 mmHg 88%
    17:00 -2°C° 0.4 mm 3 mps 761 mmHg 90%
    18:00 -3°C° 0.4 mm 4 mps 760 mmHg 91%
    19:00 -2°C° 0.4 mm 4 mps 758 mmHg 93%
    20:00 -2°C° 3.2 mm 4 mps 757 mmHg 94%
    21:00 0°C° 3.2 mm 3 mps 757 mmHg 96%
    22:00 0°C° 3.2 mm 3 mps 756 mmHg 97%
    23:00 +1°C° 2.3 mm 2 mps 755 mmHg 98%

    Tomorrow, 21 February, Thursday

    Time Temperature Precipitation Wind Pressure Humidity
    00:00 +1°C° 2.3 mm 2 mps 754 mmHg 98%
    01:00 +1°C° 2.3 mm 2 mps 753 mmHg 99%
    02:00 +2°C° 0.1 mm 1 mps 752 mmHg 99%
    03:00 +2°C° 0.1 mm 1 mps 752 mmHg 99%
    04:00 +1°C° 0.1 mm 0 mps 751 mmHg 99%
    05:00 +3°C° 0 mm 1 mps 751 mmHg 99%
    06:00 +3°C° 0 mm 1 mps 751 mmHg 99%
    07:00 +2°C° 0 mm 2 mps 751 mmHg 98%
    08:00 +2°C° 0 mm 3 mps 751 mmHg 98%
    09:00 +3°C° 0 mm 3 mps 751 mmHg 98%
    10:00 +4°C° 0 mm 4 mps 752 mmHg 98%
    11:00 +5°C° 0 mm 4 mps 752 mmHg 92%
    12:00 +5°C° 0 mm 5 mps 752 mmHg 85%
    13:00 +6°C° 0 mm 5 mps 752 mmHg 79%
    14:00 +6°C° 0 mm 5 mps 752 mmHg 78%
    15:00 +6°C° 0 mm 4 mps 753 mmHg 76%
    16:00 +5°C° 0 mm 4 mps 753 mmHg 75%
    17:00 +4°C° 0 mm 4 mps 754 mmHg 78%
    18:00 +3°C° 0 mm 4 mps 754 mmHg 80%
    19:00 +1°C° 0 mm 3 mps 755 mmHg 82%
    20:00 +1°C° 0 mm 3 mps 756 mmHg 82%
    21:00 +1°C° 0 mm 3 mps 756 mmHg 81%
    22:00 0°C° 0 mm 3 mps 757 mmHg 80%
    23:00 0°C° 0 mm 3 mps 757 mmHg 80%

    Day after tomorrow, 22 February, Friday

    Time Temperature Precipitation Wind Pressure Humidity
    00:00 0°C° 0 mm 3 mps 758 mmHg 79%
    01:00 -1°C° 0 mm 3 mps 759 mmHg 79%
    02:00 -1°C° 0 mm 3 mps 759 mmHg 79%
    03:00 -1°C° 0 mm 3 mps 759 mmHg 80%
    04:00 -1°C° 0 mm 3 mps 759 mmHg 81%
    05:00 -2°C° 0 mm 2 mps 760 mmHg 82%
    06:00 -2°C° 0 mm 2 mps 761 mmHg 83%
    07:00 -2°C° 0 mm 2 mps 761 mmHg 83%
    08:00 -1°C° 0 mm 2 mps 762 mmHg 77%
    09:00 +1°C° 0 mm 2 mps 762 mmHg 72%
    10:00 +2°C° 0 mm 3 mps 763 mmHg 66%
    11:00 +4°C° 0 mm 2 mps 763 mmHg 64%
    12:00 +5°C° 0 mm 2 mps 763 mmHg 63%
    13:00 +5°C° 0 mm 2 mps 763 mmHg 61%
    14:00 +5°C° 0 mm 2 mps 763 mmHg 63%
    15:00 +5°C° 0 mm 2 mps 763 mmHg 66%
    16:00 +5°C° 0 mm 2 mps 763 mmHg 68%
    17:00 +4°C° 0 mm 2 mps 763 mmHg 73%
    18:00 +4°C° 0 mm 1 mps 764 mmHg 78%
    19:00 +2°C° 0 mm 1 mps 764 mmHg 82%
    20:00 +2°C° 0 mm 1 mps 764 mmHg 82%
    21:00 +2°C° 0 mm 1 mps 764 mmHg 83%
    22:00 0°C° 0 mm 0 mps 765 mmHg 83%
    23:00 0°C° 0 mm 0 mps 765 mmHg 83%

    23 February, Saturday

    Time Temperature Precipitation Wind Pressure Humidity
    00:00 0°C° 0 mm 0 mps 764 mmHg 82%
    01:00 0°C° 0 mm 0 mps 764 mmHg 82%
    02:00 0°C° 0 mm 0 mps 764 mmHg 82%
    03:00 0°C° 0 mm 0 mps 764 mmHg 81%
    04:00 +1°C° 0 mm 1 mps 764 mmHg 81%
    05:00 +1°C° 0 mm 1 mps 764 mmHg 81%
    06:00 +1°C° 0 mm 1 mps 764 mmHg 81%
    07:00 +1°C° 0 mm 1 mps 764 mmHg 81%
    08:00 +2°C° 0 mm 1 mps 764 mmHg 76%
    09:00 +3°C° 0 mm 1 mps 764 mmHg 71%
    10:00 +3°C° 0 mm 2 mps 764 mmHg 66%
    11:00 +4°C° 0 mm 2 mps 763 mmHg 64%
    12:00 +5°C° 0 mm 2 mps 762 mmHg 63%
    13:00 +5°C° 0 mm 3 mps 762 mmHg 61%
    14:00 +5°C° 0 mm 3 mps 761 mmHg 64%
    15:00 +5°C° 0 mm 3 mps 760 mmHg 66%
    16:00 +6°C° 0 mm 2 mps 759 mmHg 69%
    17:00 +5°C° 0 mm 2 mps 759 mmHg 73%
    18:00 +5°C° 0 mm 2 mps 758 mmHg 77%
    19:00 +4°C° 0 mm 2 mps 758 mmHg 81%
    20:00 +4°C° 0.1 mm 2 mps 757 mmHg 85%
    21:00 +4°C° 0.1 mm 2 mps 756 mmHg 89%
    22:00 +4°C° 0.1 mm 2 mps 755 mmHg 93%
    23:00 +4°C° 1.2 mm 2 mps 754 mmHg 94%

    24 February, Sunday

    Time Temperature Precipitation Wind Pressure Humidity
    00:00 +4°C° 1.2 mm 2 mps 752 mmHg 96%
    01:00 +4°C° 1.2 mm 2 mps 751 mmHg 98%
    02:00 +5°C° 3.4 mm 2 mps 749 mmHg 98%
    03:00 +5°C° 3.4 mm 2 mps 748 mmHg 98%
    04:00 +5°C° 3.4 mm 2 mps 747 mmHg 98%
    05:00 +6°C° 0.5 mm 2 mps 745 mmHg 98%
    06:00 +6°C° 0.5 mm 2 mps 744 mmHg 98%
    07:00 +7°C° 0.5 mm 1 mps 743 mmHg 98%
    08:00 +8°C° 0.6 mm 2 mps 742 mmHg 97%
    09:00 +10°C° 0.6 mm 3 mps 740 mmHg 96%
    10:00 +12°C° 0.6 mm 4 mps 739 mmHg 95%
    11:00 +14°C° 0.2 mm 6 mps 738 mmHg 81%
    12:00 +16°C° 0.2 mm 8 mps 738 mmHg 68%
    13:00 +17°C° 0.2 mm 11 mps 737 mmHg 54%
    14:00 +14°C° 0 mm 10 mps 737 mmHg 57%
    15:00 +12°C° 0 mm 9 mps 738 mmHg 59%
    16:00 +9°C° 0 mm 8 mps 738 mmHg 62%
    17:00 +7°C° 0 mm 8 mps 739 mmHg 62%
    18:00 +6°C° 0 mm 8 mps 739 mmHg 63%
    19:00 +5°C° 0 mm 8 mps 740 mmHg 64%
    20:00 +4°C° 0 mm 8 mps 740 mmHg 63%
    21:00 +2°C° 0 mm 8 mps 740 mmHg 62%
    22:00 +1°C° 0 mm 9 mps 741 mmHg 60%
    23:00 +1°C° 0 mm 9 mps 741 mmHg 60%

    25 February, Monday

    Time Temperature Precipitation Wind Pressure Humidity
    00:00 0°C° 0 mm 9 mps 741 mmHg 60%
    01:00 0°C° 0 mm 8 mps 742 mmHg 60%
    02:00 0°C° 0 mm 9 mps 742 mmHg 60%
    03:00 -1°C° 0 mm 9 mps 743 mmHg 59%
    04:00 -1°C° 0 mm 9 mps 744 mmHg 59%
    05:00 -3°C° 0 mm 9 mps 745 mmHg 57%
    06:00 -4°C° 0 mm 9 mps 746 mmHg 56%
    07:00 -4°C° 0 mm 9 mps 747 mmHg 55%
    08:00 -4°C° 0 mm 10 mps 748 mmHg 52%
    09:00 -4°C° 0 mm 10 mps 750 mmHg 49%
    10:00 -3°C° 0 mm 11 mps 751 mmHg 45%
    11:00 -3°C° 0 mm 11 mps 752 mmHg 44%
    12:00 -2°C° 0 mm 10 mps 752 mmHg 42%
    13:00 -2°C° 0 mm 10 mps 753 mmHg 40%
    14:00 -2°C° 0 mm 10 mps 754 mmHg 40%
    15:00 -3°C° 0 mm 10 mps 755 mmHg 40%
    16:00 -3°C° 0 mm 9 mps 756 mmHg 40%
    17:00 -4°C° 0 mm 8 mps 757 mmHg 42%
    18:00 -6°C° 0 mm 7 mps 758 mmHg 44%
    19:00 -6°C° 0 mm 6 mps 759 mmHg 47%
    20:00 -6°C° 0 mm 6 mps 760 mmHg 45%
    21:00 -8°C° 0 mm 6 mps 761 mmHg 44%
    22:00 -9°C° 0 mm 6 mps 762 mmHg 42%
    23:00 -9°C° 0 mm 6 mps 762 mmHg 41%
    Show more